Flag Weather past 2 weeks in Inverness, Florida, U.S.A.

Now
66 °F

Mild.


Feels Like: 66 °F
Forecast: 55 / 70 °F
Wind: 7 mph from Northeast

Location: The Villages

Current Time: Nov 22, 2014 at 9:38:07 AM

Latest Report: Nov 22, 2014 at 8:55 AM


Visibility: 10 mi

Pressure: 30.18 "Hg

Humidity: 88%

Dew point: 63 °F

Location of InvernessLocation

Historic Weather in Inverness — Graph

°F

Inverness temperature yesterday

Maximum temperature yesterday: 72 °F (at 2:15 PM)
Minimum temperature yesterday: 52 °F (at 12:15 AM)
Average temperature yesterday: 59 °F

Past Weeks' High & Low Weather Summary

 TemperatureHumidityPressure
High81 °F (Nov 16, 12:55 PM)100% (Nov 8, 11:15 PM)30.33 "Hg (Nov 8, 11:15 PM)
Low36 °F (Nov 19, 5:15 AM)24% (Nov 20, 3:55 PM)29.78 "Hg (Nov 9, 2:15 PM)
Average60 °F73%29.99 "Hg
* Reported Nov 7 8:15 AM — Nov 22 8:15 AM, Inverness, Weather by CustomWeather, © 2014

Note: Actual official high and low records may vary slightly from our data, if they occured in-between our weather recording intervals... More about our weather records

Advertising

Inverness weather history for previous 24 hours

 ConditionsComfort  
Time TempWeatherWind HumidityBarometerVisibility
8:15 AM
Nov 22
64 °FMild.8 mph88%30.17 "Hg10 mi
7:55 AM64 °FMild.7 mph88%30.16 "Hg8 mi
7:35 AM63 °FMild.6 mph94%30.16 "Hg9 mi
7:15 AM63 °FMild.6 mph88%30.17 "Hg9 mi
6:55 AM63 °FMild.5 mph88%30.16 "Hg7 mi
6:35 AM63 °FMild.5 mph83%30.17 "Hg10 mi
6:15 AM63 °FMild.5 mph83%30.17 "Hg10 mi
5:55 AM61 °FCool.No wind88%30.16 "Hg10 mi
5:35 AM61 °FCool.3 mph88%30.16 "Hg10 mi
5:15 AM61 °FCool.3 mph88%30.15 "HgN/A
4:55 AM61 °FCool.5 mph83%30.15 "Hg10 mi
4:35 AM61 °FCool.No wind83%30.15 "Hg10 mi
4:15 AM61 °FCool.6 mph83%30.15 "Hg10 mi
3:55 AM61 °FCool.5 mph83%30.15 "Hg10 mi
3:35 AM61 °FCool.5 mph83%30.15 "Hg10 mi
3:15 AM61 °FCool.5 mph83%30.15 "Hg10 mi
2:55 AM61 °FCool.5 mph83%30.15 "Hg10 mi
2:35 AM61 °FCool.5 mph83%30.15 "Hg9 mi
2:15 AM61 °FCool.5 mph83%30.15 "Hg10 mi
1:55 AM59 °FCool.5 mph88%30.15 "Hg10 mi
1:15 AM59 °FCool.6 mph82%30.15 "Hg10 mi
12:55 AM59 °FCool.5 mph82%30.16 "Hg10 mi
12:35 AM59 °FCool.5 mph82%30.17 "Hg10 mi
12:15 AM59 °FCool.8 mph82%30.17 "Hg10 mi
11:55 PM
Nov 21
59 °FCool.6 mph82%30.18 "Hg10 mi
11:15 PM59 °FCool.6 mph77%30.19 "Hg10 mi
10:55 PM59 °FCool.6 mph77%30.20 "Hg10 mi
10:15 PM59 °FCool.6 mph77%30.20 "Hg10 mi
9:55 PM59 °FCool.8 mph77%30.19 "Hg10 mi
9:35 PM59 °FCool.6 mph77%30.20 "Hg10 mi
9:15 PM59 °FCool.6 mph77%30.20 "Hg10 mi
8:55 PM59 °FCool.6 mph77%30.20 "Hg10 mi
8:35 PM61 °FCool.7 mph72%30.20 "Hg10 mi
8:15 PM61 °FCool.7 mph72%30.20 "Hg10 mi
7:55 PM61 °FCool.7 mph72%30.20 "Hg10 mi
7:15 PM63 °FMild.8 mph68%30.20 "Hg10 mi
6:55 PM63 °FMild.7 mph64%30.19 "Hg10 mi
6:15 PM64 °FMild.7 mph64%30.19 "Hg10 mi
5:55 PM64 °FMild.8 mph64%30.19 "Hg10 mi
5:15 PM66 °FMild.9 mph56%30.19 "Hg10 mi
4:35 PM68 °FMild.9 mph53%30.18 "Hg10 mi
4:15 PM68 °FMild.15 mph53%30.17 "Hg10 mi
3:55 PM70 °FMild.10 mph50%30.17 "Hg10 mi
3:15 PM70 °FMild.14 mph50%30.16 "Hg10 mi
2:55 PM70 °FMild.13 mph53%30.16 "Hg10 mi
2:35 PM70 °FMild.14 mph53%30.16 "Hg10 mi
2:15 PM72 °FMild.14 mph50%30.16 "Hg10 mi
1:55 PM70 °FMild.14 mph50%30.16 "Hg10 mi
1:15 PM70 °FMild.13 mph53%30.18 "Hg10 mi
12:55 PM70 °FMild.13 mph50%30.19 "Hg10 mi
12:15 PM70 °FMild.15 mph50%30.20 "Hg10 mi
10:55 AM66 °FMild.10 mph49%30.23 "Hg10 mi
10:15 AM64 °FMild.15 mph49%30.23 "Hg10 mi
9:55 AM63 °FMild.10 mph49%30.23 "Hg10 mi
9:35 AM61 °FRefreshingly cool.9 mph48%30.23 "Hg10 mi
9:15 AM59 °FRefreshingly cool.10 mph45%30.22 "Hg10 mi
Weather by CustomWeather, © 2014

See weather overviewHow to use our weather pages